• Em Portugal
  • Lista de países
  • Para 7 dias
  • Temperatura da água
  • Mapas de satélite
  • Mapa do tempo
  • Widgets de tempo
  • user-avatar
    Iniciar Sessão

    Previsão horária em Trzebiec

    Hoje, 21 Junho, Quinta-feira

    Tempo Temperatura Precipitação Vento Pressão Humidade
    00:00 +19°C° 0 mm 2 m/s 755 mmHg 84%
    01:00 +19°C° 0 mm 3 m/s 755 mmHg 81%
    02:00 +19°C° 0 mm 3 m/s 754 mmHg 83%
    03:00 +19°C° 0 mm 3 m/s 754 mmHg 85%
    04:00 +18°C° 0 mm 3 m/s 753 mmHg 87%
    05:00 +20°C° 0 mm 3 m/s 753 mmHg 81%
    06:00 +22°C° 0 mm 4 m/s 752 mmHg 75%
    07:00 +23°C° 0 mm 4 m/s 752 mmHg 68%
    08:00 +25°C° 0 mm 5 m/s 751 mmHg 61%
    09:00 +26°C° 0 mm 5 m/s 750 mmHg 55%
    10:00 +27°C° 0 mm 6 m/s 750 mmHg 48%
    11:00 +24°C° 0,6 mm 6 m/s 749 mmHg 60%
    12:00 +22°C° 0,6 mm 6 m/s 749 mmHg 72%
    13:00 +20°C° 0,6 mm 6 m/s 749 mmHg 84%
    14:00 +17°C° 0,5 mm 6 m/s 749 mmHg 87%
    15:00 +15°C° 0,5 mm 5 m/s 749 mmHg 89%
    16:00 +13°C° 0,5 mm 5 m/s 750 mmHg 92%
    17:00 +13°C° 0,3 mm 5 m/s 750 mmHg 90%
    18:00 +13°C° 0,3 mm 6 m/s 750 mmHg 89%
    19:00 +13°C° 0,3 mm 6 m/s 750 mmHg 87%
    20:00 +11°C° 0,3 mm 6 m/s 751 mmHg 88%
    21:00 +10°C° 0,3 mm 6 m/s 751 mmHg 88%
    22:00 +9°C° 0,3 mm 6 m/s 751 mmHg 89%
    23:00 +9°C° 0,1 mm 6 m/s 752 mmHg 88%

    Amanhã, 22 Junho, Sexta-feira

    Tempo Temperatura Precipitação Vento Pressão Humidade
    00:00 +8°C° 0,1 mm 6 m/s 752 mmHg 87%
    01:00 +8°C° 0,1 mm 6 m/s 752 mmHg 86%
    02:00 +8°C° 0,1 mm 7 m/s 752 mmHg 86%
    03:00 +8°C° 0,1 mm 7 m/s 752 mmHg 85%
    04:00 +8°C° 0,1 mm 7 m/s 752 mmHg 85%
    05:00 +8°C° 0,1 mm 7 m/s 752 mmHg 81%
    06:00 +9°C° 0,1 mm 7 m/s 752 mmHg 78%
    07:00 +10°C° 0,1 mm 8 m/s 752 mmHg 74%
    08:00 +11°C° 0,3 mm 7 m/s 753 mmHg 72%
    09:00 +12°C° 0,3 mm 7 m/s 753 mmHg 71%
    10:00 +12°C° 0,3 mm 7 m/s 753 mmHg 69%
    11:00 +14°C° 0,8 mm 7 m/s 753 mmHg 72%
    12:00 +14°C° 0,8 mm 6 m/s 753 mmHg 74%
    13:00 +15°C° 0,8 mm 6 m/s 753 mmHg 77%
    14:00 +15°C° 0,5 mm 6 m/s 753 mmHg 74%
    15:00 +16°C° 0,5 mm 6 m/s 753 mmHg 71%
    16:00 +16°C° 0,5 mm 6 m/s 754 mmHg 68%
    17:00 +16°C° 0,1 mm 5 m/s 754 mmHg 68%
    18:00 +16°C° 0,1 mm 5 m/s 754 mmHg 67%
    19:00 +15°C° 0,1 mm 4 m/s 754 mmHg 66%
    20:00 +14°C° 0,1 mm 4 m/s 754 mmHg 71%
    21:00 +13°C° 0,1 mm 5 m/s 754 mmHg 76%
    22:00 +12°C° 0,1 mm 5 m/s 754 mmHg 81%
    23:00 +12°C° 0,4 mm 5 m/s 754 mmHg 84%

    Depois de amanhã, 23 Junho, Sábado

    Tempo Temperatura Precipitação Vento Pressão Humidade
    00:00 +12°C° 0,4 mm 5 m/s 754 mmHg 87%
    01:00 +11°C° 0,4 mm 6 m/s 754 mmHg 90%
    02:00 +10°C° 0,5 mm 5 m/s 754 mmHg 89%
    03:00 +10°C° 0,5 mm 5 m/s 754 mmHg 89%
    04:00 +10°C° 0,5 mm 5 m/s 753 mmHg 88%
    05:00 +12°C° 0,1 mm 5 m/s 754 mmHg 84%
    06:00 +11°C° 0,1 mm 6 m/s 754 mmHg 79%
    07:00 +13°C° 0,1 mm 6 m/s 754 mmHg 75%
    08:00 +14°C° 0,1 mm 6 m/s 754 mmHg 69%
    09:00 +16°C° 0,1 mm 6 m/s 754 mmHg 64%
    10:00 +17°C° 0,1 mm 6 m/s 754 mmHg 59%
    11:00 +17°C° 0,1 mm 6 m/s 754 mmHg 59%
    12:00 +17°C° 0,1 mm 6 m/s 754 mmHg 60%
    13:00 +17°C° 0,1 mm 5 m/s 754 mmHg 60%
    14:00 +19°C° 0,1 mm 5 m/s 754 mmHg 56%
    15:00 +19°C° 0,1 mm 5 m/s 754 mmHg 52%
    16:00 +20°C° 0,1 mm 5 m/s 754 mmHg 48%
    17:00 +19°C° 0 mm 5 m/s 755 mmHg 53%
    18:00 +18°C° 0 mm 4 m/s 755 mmHg 59%
    19:00 +17°C° 0 mm 4 m/s 755 mmHg 65%
    20:00 +15°C° 0,1 mm 4 m/s 755 mmHg 72%
    21:00 +14°C° 0,1 mm 3 m/s 755 mmHg 79%
    22:00 +13°C° 0,1 mm 3 m/s 756 mmHg 86%
    23:00 +13°C° 0,1 mm 3 m/s 756 mmHg 87%

    24 Junho, Domingo

    Tempo Temperatura Precipitação Vento Pressão Humidade
    00:00 +13°C° 0,1 mm 3 m/s 756 mmHg 88%
    01:00 +13°C° 0,1 mm 3 m/s 756 mmHg 89%
    02:00 +12°C° 0 mm 3 m/s 756 mmHg 91%
    03:00 +12°C° 0 mm 3 m/s 756 mmHg 93%
    04:00 +11°C° 0 mm 3 m/s 756 mmHg 96%
    05:00 +13°C° 0,1 mm 3 m/s 756 mmHg 90%
    06:00 +14°C° 0,1 mm 4 m/s 756 mmHg 84%
    07:00 +17°C° 0,1 mm 4 m/s 756 mmHg 78%
    08:00 +17°C° 0,4 mm 4 m/s 756 mmHg 75%
    09:00 +18°C° 0,4 mm 4 m/s 756 mmHg 71%
    10:00 +19°C° 0,4 mm 4 m/s 757 mmHg 68%
    11:00 +19°C° 0,4 mm 4 m/s 757 mmHg 65%
    12:00 +20°C° 0,4 mm 4 m/s 757 mmHg 63%
    13:00 +20°C° 0,4 mm 4 m/s 757 mmHg 60%
    14:00 +21°C° 0,2 mm 4 m/s 757 mmHg 57%
    15:00 +21°C° 0,2 mm 4 m/s 757 mmHg 54%
    16:00 +21°C° 0,2 mm 4 m/s 757 mmHg 51%
    17:00 +20°C° 0,1 mm 3 m/s 757 mmHg 55%
    18:00 +19°C° 0,1 mm 3 m/s 757 mmHg 58%
    19:00 +18°C° 0,1 mm 2 m/s 757 mmHg 62%
    20:00 +17°C° 0 mm 2 m/s 758 mmHg 67%
    21:00 +15°C° 0 mm 2 m/s 758 mmHg 72%
    22:00 +13°C° 0 mm 1 m/s 758 mmHg 77%
    23:00 +13°C° 0 mm 1 m/s 759 mmHg 78%

    25 Junho, Segunda-feira

    Tempo Temperatura Precipitação Vento Pressão Humidade
    00:00 +12°C° 0 mm 1 m/s 759 mmHg 79%
    01:00 +12°C° 0 mm 1 m/s 759 mmHg 80%
    02:00 +12°C° 0 mm 1 m/s 759 mmHg 81%
    03:00 +12°C° 0 mm 1 m/s 759 mmHg 81%
    04:00 +12°C° 0 mm 1 m/s 759 mmHg 82%
    05:00 +14°C° 0 mm 1 m/s 759 mmHg 75%
    06:00 +16°C° 0 mm 1 m/s 760 mmHg 68%
    07:00 +20°C° 0 mm 1 m/s 760 mmHg 61%
    08:00 +21°C° 0 mm 1 m/s 760 mmHg 55%
    09:00 +23°C° 0 mm 1 m/s 760 mmHg 48%
    10:00 +25°C° 0 mm 1 m/s 760 mmHg 41%
    11:00 +25°C° 0 mm 2 m/s 760 mmHg 42%
    12:00 +25°C° 0 mm 3 m/s 760 mmHg 42%
    13:00 +25°C° 0 mm 3 m/s 760 mmHg 42%
    14:00 +24°C° 0 mm 3 m/s 760 mmHg 43%
    15:00 +24°C° 0 mm 3 m/s 760 mmHg 44%
    16:00 +23°C° 0 mm 4 m/s 760 mmHg 46%
    17:00 +22°C° 0 mm 3 m/s 760 mmHg 51%
    18:00 +21°C° 0 mm 3 m/s 760 mmHg 55%
    19:00 +20°C° 0 mm 3 m/s 760 mmHg 60%
    20:00 +18°C° 0 mm 2 m/s 761 mmHg 67%
    21:00 +17°C° 0 mm 2 m/s 761 mmHg 73%
    22:00 +15°C° 0 mm 2 m/s 761 mmHg 79%
    23:00 +15°C° 0,1 mm 2 m/s 761 mmHg 79%

    26 Junho, Terça-feira

    Tempo Temperatura Precipitação Vento Pressão Humidade
    00:00 +16°C° 0,1 mm 2 m/s 761 mmHg 80%
    01:00 +16°C° 0,1 mm 2 m/s 761 mmHg 80%
    02:00 +16°C° 0,4 mm 2 m/s 761 mmHg 84%
    03:00 +15°C° 0,4 mm 2 m/s 760 mmHg 88%
    04:00 +15°C° 0,4 mm 2 m/s 760 mmHg 91%
    05:00 +16°C° 0,2 mm 3 m/s 760 mmHg 90%
    06:00 +17°C° 0,2 mm 3 m/s 760 mmHg 89%
    07:00 +17°C° 0,2 mm 3 m/s 760 mmHg 88%
    08:00 +19°C° 0,2 mm 3 m/s 760 mmHg 82%
    09:00 +20°C° 0,2 mm 3 m/s 760 mmHg 77%
    10:00 +21°C° 0,2 mm 4 m/s 760 mmHg 71%
    11:00 +21°C° 0,6 mm 4 m/s 760 mmHg 69%
    12:00 +22°C° 0,6 mm 4 m/s 760 mmHg 68%
    13:00 +22°C° 0,6 mm 4 m/s 760 mmHg 66%
    14:00 +22°C° 0,3 mm 5 m/s 760 mmHg 65%
    15:00 +22°C° 0,3 mm 5 m/s 760 mmHg 64%
    16:00 +22°C° 0,3 mm 5 m/s 760 mmHg 63%
    17:00 +21°C° 0,1 mm 4 m/s 760 mmHg 67%
    18:00 +21°C° 0,1 mm 4 m/s 760 mmHg 70%
    19:00 +20°C° 0,1 mm 3 m/s 760 mmHg 74%
    20:00 +18°C° 0 mm 3 m/s 760 mmHg 81%
    21:00 +17°C° 0 mm 3 m/s 761 mmHg 88%
    22:00 +15°C° 0 mm 2 m/s 761 mmHg 94%
    23:00 +15°C° 0 mm 2 m/s 761 mmHg 95%
    Mostrar mais